カタログに戻る

STARLINK-38117

運用中通信VLEO
NORAD 100006·PAYLOAD·🇺🇸 United States

打ち上げ Jul 14, 2026 から Vandenberg Space Force Base

Loading…

次のパス (今後24時間)

TLE

最新Source: Space-Track

元期: Sep 14, 2026, 06:52 UTC

1 A0006U 26160F   26257.28638267  .00140074  00000-0  82568-3 0  9993
2 A0006  70.0008 212.4993 0003451 270.3883  89.6921 15.77615545 11011

AllMySatでSTARLINK-38117をリアルタイム追跡

Download on the App Store